Home   Weather   Silverstone   Past weeks
Flag for United Kingdom

Past Weather in Silverstone, England, United Kingdom — Yesterday and Last 2 Weeks

Now
43 °F

Rain showers. Overcast.


Feels Like: 36 °F
Forecast: N/A
Wind: 14 mph from North

Location: Church Lawford

Current Time: Nov 15, 2019 at 8:37:14 pm

Latest Report: Nov 15, 2019 at 8:00 pm


Visibility: 8 mi

Pressure: 29.67 "Hg

Humidity: 87%

Dew Point: 40 °F

Location of SilverstoneLocation

Past Weather in Silverstone — Graph

°F

Silverstone Temperature Yesterday

Maximum temperature yesterday: 42 °F (at 7:00 am)
Minimum temperature yesterday: 38 °F (at 4:00 pm)
Average temperature yesterday: 40 °F

High & Low Weather Summary for the Past Weeks

 TemperatureHumidityPressure
High58 °F (Nov 1, 2:00 pm)100% (Nov 1, 5:00 am)30.02 "Hg (Nov 1, 5:00 am)
Low29 °F (Nov 9, 6:00 am)67% (Nov 13, 2:00 pm)28.64 "Hg (Nov 2, 11:00 am)
Average44 °F91%29.44 "Hg
* Reported Oct 31 7:00 pm — Nov 15 7:00 pm, Silverstone. Weather by CustomWeather, © 2019

Note: Actual official high and low records may vary slightly from our data, if they occured in-between our weather recording intervals... More about our weather records

Advertising

Silverstone Weather History for the Previous 24 Hours

Scroll right to see more
 ConditionsComfort  
Time TempWeatherWind HumidityBarometerVisibility
7:00 pm
Fri, Nov 15
44 °FQuite cool.14 mph84%29.68 "Hg12 mi
6:00 pm44 °FQuite cool.12 mph85%29.68 "Hg17 mi
5:00 pm44 °FRain showers. Overcast.12 mph86%29.68 "Hg11 mi
4:00 pm45 °FCool.12 mph88%29.69 "Hg14 mi
3:00 pm45 °FQuite cool.12 mph91%29.69 "Hg12 mi
2:00 pm45 °FRain showers. Cloudy.12 mph90%29.70 "Hg10 mi
1:00 pm45 °FCool.9 mph91%29.72 "Hg16 mi
12:00 pm45 °FQuite cool.9 mph92%29.73 "Hg11 mi
11:00 am44 °FQuite cool.10 mph94%29.74 "Hg7 mi
10:00 am43 °FQuite cool.9 mph95%29.74 "Hg7 mi
9:00 am42 °FQuite cool.8 mph97%29.73 "Hg6 mi
8:00 am42 °FFog.7 mph98%29.73 "Hg4 mi
7:00 am41 °FFog.8 mph99%29.72 "Hg3 mi
6:00 am40 °FFog.8 mph98%29.71 "Hg3 mi
5:00 am40 °FFog.7 mph98%29.72 "Hg3 mi
4:00 am40 °FFog.7 mph98%29.70 "Hg5 mi
3:00 am40 °FFog.7 mph97%29.71 "Hg7 mi
2:00 am40 °FFog.7 mph98%29.70 "Hg4 mi
1:00 am40 °FFog.6 mph98%29.70 "Hg2 mi
12:00 am40 °FQuite cool.8 mph98%29.70 "Hg3 mi
11:00 pm
Thu, Nov 14
40 °FChilly.8 mph99%29.69 "Hg3 mi
10:00 pm40 °FQuite cool.8 mph97%29.67 "Hg4 mi
9:00 pm40 °FLots of rain. Overcast.7 mph98%29.65 "Hg2 mi
8:00 pm40 °FFog.7 mph97%29.64 "Hg4 mi
Weather by CustomWeather, © 2019

See weather overview